[Iaude] MPEC X32: 2002 JZ8 [a=2.74,e=0.65,i=9.8,H=21.0]

mpec at marsden.cfa.harvard.edu mpec at marsden.cfa.harvard.edu
Tue Dec 3 07:52:33 EST 2019


M.P.E.C. 2019-X32                              Issued 2019 December 3, 12:51 UT

     The Minor Planet Electronic Circulars contain information on unusual
         minor planets and routine data on comets.  They are published
    on behalf of Division F of the International Astronomical Union by the
          Minor Planet Center, Smithsonian Astrophysical Observatory,
                          Cambridge, MA 02138, U.S.A.

             Prepared using the Tamkin Foundation Computer Network

                              MPC at CFA.HARVARD.EDU
            URL https://www.minorplanetcenter.net/    ISSN 1523-6714

                                    2002 JZ8                                    


                           Revision to MPEC 2002-J20                            

Additional Observations:
     K02J08Z  C2019 11 28.39898503 45 12.284+08 46 25.86         24.17GVEX032T14
     K02J08Z  C2019 11 28.40434803 45 11.834+08 46 23.22         24.06GVEX032T14
     K02J08Z  C2019 11 28.40969203 45 11.381+08 46 20.54         23.99GVEX032T14
     K02J08Z  C2019 11 28.41511303 45 10.926+08 46 17.86         23.71GVEX032T14
     K02J08Z  C2019 11 28.42045603 45 10.477+08 46 15.22         24.16GVEX032T14
     K02J08Z  C2019 11 28.42581703 45 10.022+08 46 12.54         24.19GVEX032T14
     K02J08Z  C2019 11 29.43504803 43 47.538+08 37 55.42         24.12GVEX032T14
     K02J08Z  C2019 11 29.44039103 43 47.085+08 37 52.82         24.38GVEX032T14
     K02J08Z  C2019 11 29.44573703 43 46.638+08 37 50.07         24.12GVEX032T14

Observer details:
T14 Mauna Kea-UH/Tholen NEO Follow-Up (CFHT).  Observer C. Wipper.  Measurer D. 
   J. Tholen.  3.6-m f/4.1 reflector + MegaCam.

First and last observations above in comparison with prediction:
Residuals in seconds of arc (or two decimals in degrees), reference and Delta-T
191128 T14 0.35- 0.00-    191129 T14 0.35- 0.00-    MPO 62390   -0.96 days

Orbital elements:
2002 JZ8                                            PHA, Earth MOID = 0.0041 AU
Epoch 2020 May 31.0 TT = JDT 2459000.5                  Veres
M 359.76835              (2000.0)            P               Q
n   0.21701969     Peri.  338.74612     -0.99808200     -0.01533579
a   2.7424368      Node   200.64954     +0.02966683     -0.96882370
e   0.6461814      Incl.    9.79203     -0.05433419     -0.24727607
P   4.54           H   21.0           G   0.15           U   1
Residuals in seconds of arc
020501 644  2.5+  0.6-    020508 858  0.4+  0.2-    020515 246  0.2-  0.0
020501 644  1.1-  0.2-    020508 858  0.1+  0.1-    020515 246  0.5-  0.1+
020501 644  1.7+  1.0-    020508 858  0.6+  0.7-    020515 246  0.6-  0.2+
020501 644  2.4-  0.5+    020508 704  0.6+  0.2-    020515 246  0.5-  0.1+
020501 644  0.9+  1.2-    020508 704  0.5+  0.5-    020515 246  0.0   0.2+
020501 644  2.5-  0.4+    020508 704  0.1-  0.5-    020516 704  0.1+  0.1+
020505 704  0.3+  1.1-    020508 704  0.5+  0.6-    020516 704  0.1+  0.1+
020505 704  0.1+  1.4-    020508 704  0.0   0.3-    020516 704  0.1+  0.2-
020505 704  0.3+  1.2-    020508 704  0.2-  0.7-    020520 291  0.1-  0.7-
020505 704  0.6+  1.2-    020508 704  0.5-  0.0     020520 291  0.0   0.3-
020505 704  0.1+  1.5-    020508 704  0.0   0.7-    020520 291  0.1+  0.7-
020506 658  0.5+  0.9-    020508 704  0.4+  0.3-    020521 291  0.0   0.5-
020506 658  1.0+  0.9-    020508 704  0.2+  0.4-    020521 291  0.1-  0.6-
020506 658  0.6-  1.1-    020508 046  1.5+  0.3-    020521 291  0.1-  0.4-
020506 704  0.5+  0.1-    020508 046  0.3+  0.6-    020601 246  0.4-  0.5+
020506 704  0.2+  0.3-    020508 046  0.7+  1.0-    020601 246  0.7-  0.2-
020506 704  1.1+  0.7-    020508 046  0.1+  0.1+    020601 246  0.0   0.3+
020506 704  0.7+  0.2-    020508 046  0.8-  0.0     020601 246  0.5-  0.6+
020506 651  0.9+  2.4-    020508 046  1.6+  0.6-    020601 246  0.1-  0.2+
020506 651  0.4+  1.3-    020509 291  0.2+  0.5-    020602 291  1.0-  0.2-
020506 651  0.7+  0.6-    020509 291  0.7+  0.6-    020602 291  0.7-  0.2-
020506 704  0.4+  0.4-    020509 291  0.7+  0.3+    020602 291  0.8-  0.4-
020506 704  0.1+  0.5-    020509 246  0.5-  0.1-    020602 291  0.8-  0.4-
020506 704  0.3-  0.2-    020509 246  0.0   0.0     020602 291  0.6-  0.4-
020506 704  0.2+  0.3-    020509 246  0.1-  0.2+    020602 291  0.6-  0.2-
020506 704  0.1+  0.9-    020509 246  0.6-  0.3+    020602 246  0.6-  0.1-
020506 704  0.5-  0.3-    020509 246  0.1-  0.2+    020602 246  0.3-  0.4+
020506 704  0.0   0.5-    020509 246  0.1+  0.1-    020602 246  0.1+  0.6+
020506 704  0.6+  1.1-    020511 291  0.2+  0.7-    020602 246  0.5-  0.3+
020506 704  0.2+  0.5-    020511 291  0.3-  0.1+    020602 246  0.1-  0.3+
020506 246  0.7-  0.2-    020511 291  0.1-  0.3-    020603 291  0.6+  0.2-
020506 246  0.2+  0.8-    020511 858  1.2-  1.1+    020603 291  0.7+  0.2-
020506 246  0.4-  0.3-    020511 858  0.8-  0.1-    020603 291  0.7+  0.1+
020506 246  1.2-  0.2-    020511 858  0.2+  0.8-    020603 649  0.4-  0.0
020506 246  0.4-  0.9-    020512 671  0.6-  1.0-    020603 649  0.8-  0.1+
020506 246  0.3-  0.2-    020512 671  0.1-  0.2+    020603 649  0.7-  0.2+
020506 246  0.9-  0.4-    020512 671  0.5+  0.2-    020606 696  0.4-  0.1-
020506 966  0.5-  0.3-    020512 671  0.6-  0.2+    020606 696  0.1+  0.4-
020507 966  0.1+  1.1-    020513 246  0.2-  0.1-    020608 715  1.2-  0.1-
020507 858  0.4+  1.0-    020513 246  0.4+  0.2-    020608 715  1.1-  0.3-
020507 858  0.2+  0.5-    020513 246  0.2-  0.0     020608 715  0.7-  0.3-
020507 858  1.4+  0.4+    020513 246  0.0   0.0     020709 568  0.1-  0.2+
020507 658  0.2-  0.3-    020513 246  0.2+  0.1+    020709 568  0.2-  0.1+
020507 658  0.2-  0.4-    020513 246  0.1+  0.2-    020709 568  0.2-  0.1+
020507 658  0.3+  0.2-    020513 246  0.1+  0.2-    191128 T14  0.0   0.0
020507 246  0.6-  0.8-    020513 246  0.1+  0.1+    191128 T14  0.0   0.0
020507 246  0.6-  0.0     020514 587  0.3+  0.0     191128 T14  0.0   0.0
020507 246  0.3-  0.3-    020514 587  0.1+  0.2-    191128 T14  0.0   0.0
020507 246  0.1+  0.4-    020514 587  0.1+  0.4-    191128 T14  0.0   0.0
020507 246  0.2+  0.5-    020514 246  0.3+  0.7-    191128 T14  0.1-  0.0
020507 246  0.4+  0.7-    020514 246  0.2+  0.3-    191129 T14  0.0   0.0
020507 118  0.6+  0.1-    020514 246  0.1-  0.1-    191129 T14  0.0   0.1+
020507 118  0.7+  1.2-    020515 246  0.4-  0.4+    191129 T14  0.1+  0.1-
020507 118  0.4+  0.6-    020515 246  0.1-  0.0
020507 118  0.9+  0.5-    020515 246  0.2-  0.1+

Ephemeris:
2002 JZ8                 a,e,i = 2.74, 0.65, 10                  q = 0.9703
Date    TT    R. A. (2000) Decl.     Delta      r    Elong.  Phase     V
2019 11 03    04 14 46.5 +12 17 49   1.5795  2.5117   154.5     9.8    24.6
...
2019 11 18    03 58 51.4 +10 14 36   1.4230  2.4007   168.9     4.5    24.1
...
2019 11 26    03 48 27.3 +09 06 27   1.3661  2.3400   167.7     5.2    24.0
...
2019 12 02    03 40 17.9 +08 17 18   1.3359  2.2937   161.9     7.7    24.0
2019 12 03    03 38 56.2 +08 09 25   1.3319  2.2859   160.8     8.2    24.0
2019 12 04    03 37 34.8 +08 01 40   1.3282  2.2781   159.6     8.7    24.0
...
2019 12 10    03 29 37.0 +07 17 58   1.3116  2.2310   152.3    11.8    24.1
...
2019 12 18    03 19 53.4 +06 29 20   1.3036  2.1673   142.3    16.1    24.1
...
2020 01 02    03 06 30.0 +05 36 13   1.3233  2.0450   124.2    23.4    24.3

A. U. Tomatic                (C) Copyright 2019 MPC           M.P.E.C. 2019-X32




More information about the Iaude mailing list